<?xml version="1.0"?>
<gpx xmlns:xsi="http://www.w3.org/2001/XMLSchema-instance" xmlns:xsd="http://www.w3.org/2001/XMLSchema" version="1.1" creator="Quo v2" xmlns="http://www.topografix.com/GPX/1/1">
  <metadata>
    <desc>GPX file generated with Quo.</desc>
    <link href="http://www.mapyx.com">
      <text>Mapyx</text>
    </link>
    <time>2017-07-02T00:05:53.7616739+01:00</time>
  </metadata>
  <trk>
    <name>Track from Segments</name>
    <trkseg>
      <trkpt lat="53.8485968904535" lon="-1.83734006248666">
        <ele>90.829974227387</ele>
        <time>2010-02-18T16:38:03</time>
        <name>WPT 001</name>
        <desc />
      </trkpt>
      <trkpt lat="53.8481702720108" lon="-1.83757276034265">
        <ele>93.204974227387</ele>
        <time>2014-07-27T15:13:25.1394175</time>
        <name>WPT 001 - WPT 002</name>
        <desc />
      </trkpt>
      <trkpt lat="53.848102509572" lon="-1.83797734897499">
        <ele>93.5849742273858</ele>
        <time>2014-07-27T15:13:44.9515507</time>
        <name>WPT 001 - WPT 002 - WPT 002</name>
        <desc />
      </trkpt>
      <trkpt lat="53.8476590849824" lon="-1.83841226341857">
        <ele>94.9984448516458</ele>
        <time>2014-07-27T15:14:01.3364878</time>
        <name>WPT 001 - WPT 002 - WPT 002 - WPT 002</name>
        <desc />
      </trkpt>
      <trkpt lat="53.8465836449281" lon="-1.83873407833355">
        <ele>94.9769428821448</ele>
        <time>2014-07-27T15:14:17.2113958</time>
        <name>WPT 001 - WPT 002 - WPT 002 - WPT 002 - WPT 002</name>
        <desc />
      </trkpt>
      <trkpt lat="53.84623429" lon="-1.839179232">
        <ele>93.7923172849388</ele>
        <time>2010-02-18T16:38:03</time>
        <name>WPT 002</name>
        <desc />
      </trkpt>
      <trkpt lat="53.845810211" lon="-1.839139878">
        <ele>91.3772486777543</ele>
        <time>2010-02-18T16:38:03</time>
        <name>WPT 003</name>
        <desc />
      </trkpt>
      <trkpt lat="53.845725251" lon="-1.839037692">
        <ele>90.9930264086335</ele>
        <time>2010-02-18T16:38:03</time>
        <name>WPT 004</name>
        <desc />
      </trkpt>
      <trkpt lat="53.845288567" lon="-1.838711534">
        <ele>88.7709997009381</ele>
        <time>2010-02-18T16:38:03</time>
        <name>WPT 005</name>
        <desc />
      </trkpt>
      <trkpt lat="53.844985777" lon="-1.838794655">
        <ele>86.4021431990094</ele>
        <time>2010-02-18T16:38:03</time>
        <name>WPT 006</name>
        <desc />
      </trkpt>
      <trkpt lat="53.844658926" lon="-1.838959825">
        <ele>83.5666853850425</ele>
        <time>2010-02-18T16:38:03</time>
        <name>WPT 007</name>
        <desc />
      </trkpt>
      <trkpt lat="53.844344664" lon="-1.839534726">
        <ele>80.3984466500656</ele>
        <time>2010-02-18T16:38:03</time>
        <name>WPT 008</name>
        <desc />
      </trkpt>
      <trkpt lat="53.843884214" lon="-1.839577464">
        <ele>79.0013538733323</ele>
        <time>2010-02-18T16:38:03</time>
        <name>WPT 009</name>
        <desc />
      </trkpt>
      <trkpt lat="53.843593225" lon="-1.839414667">
        <ele>78.1858325643282</ele>
        <time>2010-02-18T16:38:03</time>
        <name>WPT 010</name>
        <desc />
      </trkpt>
      <trkpt lat="53.843242085" lon="-1.839559493">
        <ele>78.9264346261951</ele>
        <time>2010-02-18T16:38:03</time>
        <name>WPT 011</name>
        <desc />
      </trkpt>
      <trkpt lat="53.841946556" lon="-1.840302012">
        <ele>85.0828619859787</ele>
        <time>2010-02-18T16:38:03</time>
        <name>WPT 012</name>
        <desc />
      </trkpt>
      <trkpt lat="53.841935541" lon="-1.841141996">
        <ele>85.7374902222988</ele>
        <time>2010-02-18T16:38:03</time>
        <name>WPT 013</name>
        <desc />
      </trkpt>
      <trkpt lat="53.842033171" lon="-1.841653889">
        <ele>85.5879012315005</ele>
        <time>2010-02-18T16:38:03</time>
        <name>WPT 014</name>
        <desc />
      </trkpt>
      <trkpt lat="53.842275806" lon="-1.84187828">
        <ele>84.6144596998507</ele>
        <time>2010-02-18T16:38:03</time>
        <name>WPT 015</name>
        <desc />
      </trkpt>
      <trkpt lat="53.842312135" lon="-1.841898694">
        <ele>84.458583995836</ele>
        <time>2010-02-18T16:38:03</time>
        <name>WPT 016</name>
        <desc />
      </trkpt>
      <trkpt lat="53.842312701" lon="-1.842328879">
        <ele>84.5354224021795</ele>
        <time>2010-02-18T16:38:03</time>
        <name>WPT 017</name>
        <desc />
      </trkpt>
      <trkpt lat="53.842216429" lon="-1.842779979">
        <ele>84.922643455436</ele>
        <time>2010-02-18T16:38:03</time>
        <name>WPT 018</name>
        <desc />
      </trkpt>
      <trkpt lat="53.842314123" lon="-1.843414807">
        <ele>84.72820867964</ele>
        <time>2010-02-18T16:38:03</time>
        <name>WPT 019</name>
        <desc />
      </trkpt>
      <trkpt lat="53.842496939" lon="-1.844213102">
        <ele>85.2780328034411</ele>
        <time>2010-02-18T16:38:03</time>
        <name>WPT 020</name>
        <desc />
      </trkpt>
      <trkpt lat="53.842727545" lon="-1.844519634">
        <ele>85.5866440717144</ele>
        <time>2010-02-18T16:38:03</time>
        <name>WPT 021</name>
        <desc />
      </trkpt>
      <trkpt lat="53.843078914" lon="-1.844477355">
        <ele>86.168286736732</ele>
        <time>2010-02-18T16:38:03</time>
        <name>WPT 022</name>
        <desc />
      </trkpt>
      <trkpt lat="53.843479218" lon="-1.844824116">
        <ele>86.9181938689125</ele>
        <time>2010-02-18T16:38:03</time>
        <name>WPT 023</name>
        <desc />
      </trkpt>
      <trkpt lat="53.843891482" lon="-1.845109436">
        <ele>90.9242724448528</ele>
        <time>2010-02-18T16:38:03</time>
        <name>WPT 024</name>
        <desc />
      </trkpt>
      <trkpt lat="53.844704558" lon="-1.846069494">
        <ele>98.9177347250493</ele>
        <time>2010-02-18T16:38:03</time>
        <name>WPT 025</name>
        <desc />
      </trkpt>
      <trkpt lat="53.845529928" lon="-1.847234316">
        <ele>110.825432028251</ele>
        <time>2010-02-18T16:38:03</time>
        <name>WPT 026</name>
        <desc />
      </trkpt>
      <trkpt lat="53.845772657" lon="-1.847540842">
        <ele>115.737935629826</ele>
        <time>2010-02-18T16:38:03</time>
        <name>WPT 027</name>
        <desc />
      </trkpt>
      <trkpt lat="53.84596672" lon="-1.847663077">
        <ele>119.929458261775</ele>
        <time>2010-02-18T16:38:03</time>
        <name>WPT 028</name>
        <desc />
      </trkpt>
      <trkpt lat="53.846124339" lon="-1.847744464">
        <ele>123.46982228725</ele>
        <time>2010-02-18T16:38:03</time>
        <name>WPT 029</name>
        <desc />
      </trkpt>
      <trkpt lat="53.846210043" lon="-1.848440814">
        <ele>127.469344952753</ele>
        <time>2010-02-18T16:38:03</time>
        <name>WPT 030</name>
        <desc />
      </trkpt>
      <trkpt lat="53.846501691" lon="-1.849136426">
        <ele>134.355656914513</ele>
        <time>2010-02-18T16:38:03</time>
        <name>WPT 031</name>
        <desc />
      </trkpt>
      <trkpt lat="53.846695571" lon="-1.849115176">
        <ele>137.537634723409</ele>
        <time>2010-02-18T16:38:03</time>
        <name>WPT 032</name>
        <desc />
      </trkpt>
      <trkpt lat="53.846925959" lon="-1.849257717">
        <ele>141.756831313843</ele>
        <time>2010-02-18T16:38:03</time>
        <name>WPT 033</name>
        <desc />
      </trkpt>
      <trkpt lat="53.84713283" lon="-1.849994631">
        <ele>146.134970009057</ele>
        <time>2010-02-18T16:38:03</time>
        <name>WPT 034</name>
        <desc />
      </trkpt>
      <trkpt lat="53.847303778" lon="-1.851039101">
        <ele>150.06385378297</ele>
        <time>2010-02-18T16:38:03</time>
        <name>WPT 035</name>
        <desc />
      </trkpt>
      <trkpt lat="53.847134513" lon="-1.851347121">
        <ele>147.691336771415</ele>
        <time>2010-02-18T16:38:03</time>
        <name>WPT 036</name>
        <desc />
      </trkpt>
      <trkpt lat="53.846953346" lon="-1.851839532">
        <ele>145.837017233234</ele>
        <time>2010-02-18T16:38:03</time>
        <name>WPT 037</name>
        <desc />
      </trkpt>
      <trkpt lat="53.846772442" lon="-1.852475308">
        <ele>144.191304376004</ele>
        <time>2010-02-18T16:38:03</time>
        <name>WPT 038</name>
        <desc />
      </trkpt>
      <trkpt lat="53.846385273" lon="-1.852927451">
        <ele>139.323088578022</ele>
        <time>2010-02-18T16:38:03</time>
        <name>WPT 039</name>
        <desc />
      </trkpt>
      <trkpt lat="53.846300751" lon="-1.853173628">
        <ele>138.914528016449</ele>
        <time>2010-02-18T16:38:03</time>
        <name>WPT 040</name>
        <desc />
      </trkpt>
      <trkpt lat="53.846180587" lon="-1.854034629">
        <ele>140.983336719669</ele>
        <time>2010-02-18T16:38:03</time>
        <name>WPT 041</name>
        <desc />
      </trkpt>
      <trkpt lat="53.846048054" lon="-1.85462936">
        <ele>142.910891615841</ele>
        <time>2010-02-18T16:38:03</time>
        <name>WPT 042</name>
        <desc />
      </trkpt>
      <trkpt lat="53.845842874" lon="-1.855265194">
        <ele>143.784926494605</ele>
        <time>2010-02-18T16:38:03</time>
        <name>WPT 043</name>
        <desc />
      </trkpt>
      <trkpt lat="53.845794822" lon="-1.855654728">
        <ele>145.188235054794</ele>
        <time>2010-02-18T16:38:03</time>
        <name>WPT 044</name>
        <desc />
      </trkpt>
      <trkpt lat="53.845589662" lon="-1.856311105">
        <ele>144.107110993799</ele>
        <time>2010-02-18T16:38:03</time>
        <name>WPT 045</name>
        <desc />
      </trkpt>
      <trkpt lat="53.845396441" lon="-1.856885476">
        <ele>142.246392052947</ele>
        <time>2010-02-18T16:38:03</time>
        <name>WPT 046</name>
        <desc />
      </trkpt>
      <trkpt lat="53.845349929" lon="-1.85850425">
        <ele>143.774033158276</ele>
        <time>2010-02-18T16:38:03</time>
        <name>WPT 047</name>
        <desc />
      </trkpt>
      <trkpt lat="53.845095991" lon="-1.858955875">
        <ele>141.945869004293</ele>
        <time>2010-02-18T16:38:03</time>
        <name>WPT 048</name>
        <desc />
      </trkpt>
      <trkpt lat="53.844939269" lon="-1.859632614">
        <ele>141.42995867865</ele>
        <time>2010-02-18T16:38:03</time>
        <name>WPT 049</name>
        <desc />
      </trkpt>
      <trkpt lat="53.845061677" lon="-1.860656677">
        <ele>145.613565917394</ele>
        <time>2010-02-18T16:38:03</time>
        <name>WPT 050</name>
        <desc />
      </trkpt>
      <trkpt lat="53.845196823" lon="-1.86229539">
        <ele>151.279118297787</ele>
        <time>2010-02-18T16:38:03</time>
        <name>WPT 051</name>
        <desc />
      </trkpt>
      <trkpt lat="53.845233641" lon="-1.862746039">
        <ele>152.698364815366</ele>
        <time>2010-02-18T16:38:03</time>
        <name>WPT 052</name>
        <desc />
      </trkpt>
      <trkpt lat="53.84543895" lon="-1.862110126">
        <ele>155.991746245224</ele>
        <time>2010-02-18T16:38:03</time>
        <name>WPT 053</name>
        <desc />
      </trkpt>
      <trkpt lat="53.845559532" lon="-1.86163853">
        <ele>158.258503561963</ele>
        <time>2010-02-18T16:38:03</time>
        <name>WPT 054</name>
        <desc />
      </trkpt>
      <trkpt lat="53.845668355" lon="-1.861412721">
        <ele>160.526035618214</ele>
        <time>2010-02-18T16:38:03</time>
        <name>WPT 055</name>
        <desc />
      </trkpt>
      <trkpt lat="53.845753249" lon="-1.861473973">
        <ele>162.955698112051</ele>
        <time>2010-02-18T16:38:03</time>
        <name>WPT 056</name>
        <desc />
      </trkpt>
      <trkpt lat="53.845887517" lon="-1.86235453">
        <ele>168.691677616929</ele>
        <time>2010-02-18T16:38:03</time>
        <name>WPT 057</name>
        <desc />
      </trkpt>
      <trkpt lat="53.845899765" lon="-1.862457002">
        <ele>169.264509899177</ele>
        <time>2010-02-18T16:38:03</time>
        <name>WPT 058</name>
        <desc />
      </trkpt>
      <trkpt lat="53.845791851" lon="-1.863481847">
        <ele>169.668477733407</ele>
        <time>2010-02-18T16:38:03</time>
        <name>WPT 059</name>
        <desc />
      </trkpt>
      <trkpt lat="53.845828894" lon="-1.864055441">
        <ele>173.844655034913</ele>
        <time>2010-02-18T16:38:03</time>
        <name>WPT 060</name>
        <desc />
      </trkpt>
      <trkpt lat="53.845974673" lon="-1.864403235">
        <ele>179.430934941912</ele>
        <time>2010-02-18T16:38:03</time>
        <name>WPT 061</name>
        <desc />
      </trkpt>
      <trkpt lat="53.845794532" lon="-1.865858656">
        <ele>183.10422086895</ele>
        <time>2010-02-18T16:38:03</time>
        <name>WPT 062</name>
        <desc />
      </trkpt>
      <trkpt lat="53.845601902" lon="-1.866924737">
        <ele>184.577439103571</ele>
        <time>2010-02-18T16:38:03</time>
        <name>WPT 063</name>
        <desc />
      </trkpt>
      <trkpt lat="53.845833264" lon="-1.867968922">
        <ele>191.671189753344</ele>
        <time>2010-02-18T16:38:03</time>
        <name>WPT 064</name>
        <desc />
      </trkpt>
      <trkpt lat="53.845568301" lon="-1.869465566">
        <ele>191.37881302736</ele>
        <time>2010-02-18T16:38:03</time>
        <name>WPT 065</name>
        <desc />
      </trkpt>
      <trkpt lat="53.845326363" lon="-1.869835131">
        <ele>188.461951948582</ele>
        <time>2010-02-18T16:38:03</time>
        <name>WPT 066</name>
        <desc />
      </trkpt>
      <trkpt lat="53.845254159" lon="-1.870286125">
        <ele>187.349277141905</ele>
        <time>2010-02-18T16:38:03</time>
        <name>WPT 067</name>
        <desc />
      </trkpt>
      <trkpt lat="53.845316221" lon="-1.871597266">
        <ele>188.975665346795</ele>
        <time>2010-02-18T16:38:03</time>
        <name>WPT 068</name>
        <desc />
      </trkpt>
      <trkpt lat="53.845522868" lon="-1.872252304">
        <ele>192.485705982129</ele>
        <time>2010-02-18T16:38:03</time>
        <name>WPT 069</name>
        <desc />
      </trkpt>
      <trkpt lat="53.845765294" lon="-1.872333525">
        <ele>196.622968334671</ele>
        <time>2010-02-18T16:38:03</time>
        <name>WPT 070</name>
        <desc />
      </trkpt>
      <trkpt lat="53.846177212" lon="-1.872270864">
        <ele>203.376693913052</ele>
        <time>2010-02-18T16:38:03</time>
        <name>WPT 071</name>
        <desc />
      </trkpt>
      <trkpt lat="53.847145337" lon="-1.871202413">
        <ele>211.321896345979</ele>
        <time>2010-02-18T16:38:03</time>
        <name>WPT 072</name>
        <desc />
      </trkpt>
      <trkpt lat="53.84759254" lon="-1.870196934">
        <ele>214.974735978487</ele>
        <time>2010-02-18T16:38:03</time>
        <name>WPT 073</name>
        <desc />
      </trkpt>
      <trkpt lat="53.847653125" lon="-1.870135337">
        <ele>215.872818536572</ele>
        <time>2010-02-18T16:38:03</time>
        <name>WPT 074</name>
        <desc />
      </trkpt>
      <trkpt lat="53.847835099" lon="-1.870401091">
        <ele>220.231320995788</ele>
        <time>2010-02-18T16:38:03</time>
        <name>WPT 075</name>
        <desc />
      </trkpt>
      <trkpt lat="53.847980552" lon="-1.870380214">
        <ele>222.86468784375</ele>
        <time>2010-02-18T16:38:03</time>
        <name>WPT 076</name>
        <desc />
      </trkpt>
      <trkpt lat="53.848743425" lon="-1.869968032">
        <ele>233.076870703961</ele>
        <time>2010-02-18T16:38:03</time>
        <name>WPT 077</name>
        <desc />
      </trkpt>
      <trkpt lat="53.848888698" lon="-1.869865063">
        <ele>235.051996556492</ele>
        <time>2010-02-18T16:38:03</time>
        <name>WPT 078</name>
        <desc />
      </trkpt>
      <trkpt lat="53.851555852" lon="-1.871270843">
        <ele>253.343305351442</ele>
        <time>2010-02-18T16:38:04</time>
        <name>WPT 079</name>
        <desc />
      </trkpt>
      <trkpt lat="53.853847244" lon="-1.872534424">
        <ele>270.920287074399</ele>
        <time>2010-02-18T16:38:04</time>
        <name>WPT 080</name>
        <desc />
      </trkpt>
      <trkpt lat="53.854465218" lon="-1.872573534">
        <ele>274.289696274989</ele>
        <time>2010-02-18T16:38:04</time>
        <name>WPT 081</name>
        <desc />
      </trkpt>
      <trkpt lat="53.854462315" lon="-1.869868329">
        <ele>267.374744649397</ele>
        <time>2010-02-18T16:38:04</time>
        <name>WPT 082</name>
        <desc />
      </trkpt>
      <trkpt lat="53.854445991" lon="-1.866056489">
        <ele>250.766191111573</ele>
        <time>2010-02-18T16:38:04</time>
        <name>WPT 083</name>
        <desc />
      </trkpt>
      <trkpt lat="53.853898889" lon="-1.864398178">
        <ele>243.694650865557</ele>
        <time>2010-02-18T16:38:04</time>
        <name>WPT 084</name>
        <desc />
      </trkpt>
      <trkpt lat="53.854065848" lon="-1.862040908">
        <ele>237.195255097731</ele>
        <time>2010-02-18T16:38:04</time>
        <name>WPT 085</name>
        <desc />
      </trkpt>
      <trkpt lat="53.854161262" lon="-1.860708428">
        <ele>235.021499891114</ele>
        <time>2010-02-18T16:38:04</time>
        <name>WPT 086</name>
        <desc />
      </trkpt>
      <trkpt lat="53.854088189" lon="-1.860380769">
        <ele>234.47274785296</ele>
        <time>2010-02-18T16:38:04</time>
        <name>WPT 087</name>
        <desc />
      </trkpt>
      <trkpt lat="53.854269917" lon="-1.860339177">
        <ele>234.935317843372</ele>
        <time>2010-02-18T16:38:04</time>
        <name>WPT 088</name>
        <desc />
      </trkpt>
      <trkpt lat="53.8549604951409" lon="-1.8602046027584">
        <ele>232.524248340617</ele>
        <time>2014-07-27T14:54:45.5313795</time>
        <name>WPT 089</name>
        <desc />
      </trkpt>
      <trkpt lat="53.8554300805625" lon="-1.86055574479622">
        <ele>230.07020672493</ele>
        <time>2014-07-27T14:54:53.1368146</time>
        <name>WPT 090</name>
        <desc />
      </trkpt>
      <trkpt lat="53.8557433243308" lon="-1.86095150180877">
        <ele>228.241712213254</ele>
        <time>2014-07-27T14:54:55.2989382</time>
        <name>WPT 091</name>
        <desc />
      </trkpt>
      <trkpt lat="53.8555861645966" lon="-1.86029069469659">
        <ele>226.668792482221</ele>
        <time>2014-07-27T14:54:58.8521415</time>
        <name>WPT 092</name>
        <desc />
      </trkpt>
      <trkpt lat="53.8552987263755" lon="-1.85967441672147">
        <ele>227.271365136954</ele>
        <time>2014-07-27T14:55:00.890258</time>
        <name>WPT 093</name>
        <desc />
      </trkpt>
      <trkpt lat="53.8547249805641" lon="-1.85941181021985">
        <ele>230.614052594078</ele>
        <time>2014-07-27T14:55:03.4484043</time>
        <name>WPT 094</name>
        <desc />
      </trkpt>
      <trkpt lat="53.8541770404958" lon="-1.85892868894862">
        <ele>232.116020477128</ele>
        <time>2014-07-27T14:55:08.0216659</time>
        <name>WPT 095</name>
        <desc />
      </trkpt>
      <trkpt lat="53.8537065646977" lon="-1.85782810698891">
        <ele>227.781977543891</ele>
        <time>2014-07-27T14:55:10.3207974</time>
        <name>WPT 096</name>
        <desc />
      </trkpt>
      <trkpt lat="53.8534973096293" lon="-1.85721160734127">
        <ele>227.692668925588</ele>
        <time>2014-07-27T14:55:14.6700462</time>
        <name>WPT 097</name>
        <desc />
      </trkpt>
      <trkpt lat="53.8529490445385" lon="-1.85646401539849">
        <ele>222.754721473605</ele>
        <time>2014-07-27T14:55:16.2481364</time>
        <name>WPT 098</name>
        <desc />
      </trkpt>
      <trkpt lat="53.8525315247066" lon="-1.85606867595316">
        <ele>221.533526807471</ele>
        <time>2014-07-27T14:55:19.1052999</time>
        <name>WPT 099</name>
        <desc />
      </trkpt>
      <trkpt lat="53.8516683300838" lon="-1.85355882520534">
        <ele>193.381013446746</ele>
        <time>2014-07-27T14:55:24.2005913</time>
        <name>WPT 100</name>
        <desc />
      </trkpt>
      <trkpt lat="53.8514068143896" lon="-1.85285439163595">
        <ele>185.781405603208</ele>
        <time>2014-07-27T14:55:26.6727327</time>
        <name>WPT 101</name>
        <desc />
      </trkpt>
      <trkpt lat="53.8509880863071" lon="-1.85148926519994">
        <ele>178.759760798123</ele>
        <time>2014-07-27T14:55:29.3818877</time>
        <name>WPT 102</name>
        <desc />
      </trkpt>
      <trkpt lat="53.8508302156871" lon="-1.85029956829131">
        <ele>175.690063984515</ele>
        <time>2014-07-27T14:55:32.1790476</time>
        <name>WPT 103</name>
        <desc />
      </trkpt>
      <trkpt lat="53.8508277803792" lon="-1.84835990102665">
        <ele>161.953264478052</ele>
        <time>2014-07-27T14:55:34.3031691</time>
        <name>WPT 104</name>
        <desc />
      </trkpt>
      <trkpt lat="53.8508263827144" lon="-1.84725781748128">
        <ele>152.249929707808</ele>
        <time>2014-07-27T14:55:36.7383084</time>
        <name>WPT 105</name>
        <desc />
      </trkpt>
      <trkpt lat="53.8506418386009" lon="-1.84562740536244">
        <ele>141.028743555494</ele>
        <time>2014-07-27T14:55:39.3724591</time>
        <name>WPT 106</name>
        <desc />
      </trkpt>
      <trkpt lat="53.850327117764" lon="-1.84412974065286">
        <ele>125.551418273707</ele>
        <time>2014-07-27T14:55:43.9717221</time>
        <name>WPT 107</name>
        <desc />
      </trkpt>
      <trkpt lat="53.8504305757048" lon="-1.84351219246108">
        <ele>112.781436232518</ele>
        <time>2014-07-27T14:55:46.2438521</time>
        <name>WPT 108</name>
        <desc />
      </trkpt>
      <trkpt lat="53.8501947195757" lon="-1.84254324874488">
        <ele>99.1993420695598</ele>
        <time>2014-07-27T14:55:50.2220796</time>
        <name>WPT 109</name>
        <desc />
      </trkpt>
      <trkpt lat="53.8500898212185" lon="-1.84205873191564">
        <ele>91.7038970984708</ele>
        <time>2014-07-27T14:55:52.2801974</time>
        <name>WPT 110</name>
        <desc />
      </trkpt>
      <trkpt lat="53.8505054101986" lon="-1.84095508714686">
        <ele>84.5789535070427</ele>
        <time>2014-07-27T14:55:56.4684369</time>
        <name>WPT 111</name>
        <desc />
      </trkpt>
      <trkpt lat="53.8498010625552" lon="-1.84051693246349">
        <ele>85.5543365347444</ele>
        <time>2014-07-27T14:57:08.2495426</time>
        <name>WPT 112</name>
        <desc />
      </trkpt>
      <trkpt lat="53.849531442393" lon="-1.84019570134188">
        <ele>85.5806307308661</ele>
        <time>2014-07-27T14:57:39.2513158</time>
        <name>WPT 113</name>
        <desc />
      </trkpt>
      <trkpt lat="53.8489165072981" lon="-1.84008251943704">
        <ele>86.6343066951848</ele>
        <time>2014-07-27T14:57:42.5625051</time>
        <name>WPT 114</name>
        <desc />
      </trkpt>
      <trkpt lat="53.848779581128" lon="-1.83985199399115">
        <ele>87.9491330660272</ele>
        <time>2014-07-27T14:57:46.353722</time>
        <name>WPT 115</name>
        <desc />
      </trkpt>
      <trkpt lat="53.8487619249527" lon="-1.83941884782127">
        <ele>88.8588957334868</ele>
        <time>2014-07-27T14:57:55.4722435</time>
        <name>WPT 116</name>
        <desc />
      </trkpt>
      <trkpt lat="53.84894884524" lon="-1.83872498763702">
        <ele>88.9494013159259</ele>
        <time>2014-07-27T14:57:59.2994624</time>
        <name>WPT 117</name>
        <desc />
      </trkpt>
      <trkpt lat="53.849016726887" lon="-1.83840703483352">
        <ele>88.7442057486894</ele>
        <time>2014-07-27T14:58:02.0086174</time>
        <name>WPT 118</name>
        <desc />
      </trkpt>
      <trkpt lat="53.8487945669559" lon="-1.83829236674234">
        <ele>89.7374742273823</ele>
        <time>2014-07-27T14:58:05.7488313</time>
        <name>WPT 119</name>
        <desc />
      </trkpt>
      <trkpt lat="53.848845370204" lon="-1.83797448035766">
        <ele>89.4524742273847</ele>
        <time>2014-07-27T14:58:07.8859536</time>
        <name>WPT 120</name>
        <desc />
      </trkpt>
      <trkpt lat="53.8486915188763" lon="-1.83785955105219">
        <ele>90.3074742273835</ele>
        <time>2014-07-27T14:58:14.0503061</time>
        <name>WPT 121</name>
        <desc />
      </trkpt>
      <trkpt lat="53.848639661871" lon="-1.83739765831406">
        <ele>90.5924742273841</ele>
        <time>2014-07-27T14:58:17.8285222</time>
        <name>WPT 122</name>
        <desc />
      </trkpt>
      <trkpt lat="53.848648239628" lon="-1.83742650589875">
        <ele>90.5449742273835</ele>
        <time>2014-07-27T14:58:28.62814</time>
        <name>WPT 123</name>
        <desc />
      </trkpt>
      <extensions>
        <drawing v="True" pv="False" pw="4" pc="255|255|255" pt="0" lv="True" lw="4" lc="255|0|0" lt="0" ls="0" lcs="3" fc="255|255|255" ft="120" fs="-1" fsc="0|0|0" xmlns="" />
      </extensions>
    </trkseg>
  </trk>
</gpx>